Weather History for Lumberton, NC

Change the Weather History Date:

Tuesday, March 13, 2012

  Actual Average Record
Temperature  
Mean Temperature 66 °F 53 °F  
Max Temperature 75 °F 66 °F 82 °F (2006)
Min Temperature 56 °F 41 °F 28 °F (2014)
Degree Days  
Heating Degree Days 0 12  
Month to date heating degree days 135 176  
Since 1 July heating degree days 1983 2406  
Cooling Degree Days 1 0  
Month to date cooling degree days 7 0  
Year to date cooling degree days 7 3  
Growing Degree Days 14 (Base 50)    
Moisture  
Dew Point 56 °F    
Average Humidity 76    
Maximum Humidity 90    
Minimum Humidity 61    
Precipitation  
Precipitation 0.00 in 0.10 in 0.22 in (2002)
Month to date precipitation 1.69 1.42  
Year to date precipitation 6.21 7.29  
Sea Level Pressure  
Sea Level Pressure 30.22 in    
Wind  
Wind Speed 6 mph (SW)    
Max Wind Speed 8 mph    
Max Gust Speed 10 mph    
Visibility 10 miles    
Events      
T = Trace of Precipitation, MM = Missing Value Source: NWS Daily Summary

Daily Weather History Graph

Daily Weather History Graph

Search for Another Location

Airport:

Trip Planner

Search our weather history database for the weather conditions in past years. The results will help you decide how hot, cold, wet, or windy it might be!

Date:

Astronomy

Mar. 13, 2012 Rise Set
Actual Time 7:28 AM EDT 7:22 PM EDT
Civil Twilight 7:03 AM EDT 7:47 PM EDT
Nautical Twilight 6:34 AM EDT 8:17 PM EDT
Astronomical Twilight 6:05 AM EDT 8:46 PM EDT
Moon 12:37 AM EDT (3/13) 10:56 AM EDT (3/13)
Length of Visible Light 12h 44m
Length of Day
11h 53m
Waning Gibbous, 66% of the Moon is Illuminated
Mar 13
Waning Gibbous
Mar 14
Last Quarter
Mar 22
New
Mar 30
First Quarter
Apr 6
Full

Hourly Weather History & Observations

Time (EDT) Temp. Dew Point Humidity Pressure Visibility Wind Dir Wind Speed Gust Speed Precip Events Conditions
12:54 AM 57.0 °F 50.0 °F 77% 30.28 in 10.0 mi South 3.5 mph - N/A   Clear
1:54 AM 57.0 °F 51.1 °F 81% 30.27 in 10.0 mi Calm Calm - N/A   Clear
2:54 AM 55.9 °F 51.1 °F 84% 30.27 in 10.0 mi Calm Calm - N/A   Mostly Cloudy
3:54 AM 59.0 °F 52.0 °F 78% 30.25 in 10.0 mi SSW 5.8 mph - N/A   Overcast
4:54 AM 59.0 °F 53.1 °F 81% 30.25 in 10.0 mi SW 3.5 mph - N/A   Overcast
5:54 AM 57.9 °F 53.1 °F 84% 30.25 in 10.0 mi SSW 3.5 mph - N/A   Overcast
6:54 AM 57.9 °F 53.1 °F 84% 30.26 in 10.0 mi Calm Calm - N/A   Overcast
7:54 AM 57.9 °F 54.0 °F 87% 30.27 in 10.0 mi Calm Calm - N/A   Overcast
8:54 AM 60.1 °F 54.0 °F 80% 30.28 in 9.0 mi SW 4.6 mph - N/A   Overcast
9:54 AM 62.1 °F 55.0 °F 78% 30.28 in 9.0 mi SW 8.1 mph - N/A   Overcast
10:54 AM 66.9 °F 57.0 °F 70% 30.27 in 10.0 mi SW 12.7 mph - N/A   Mostly Cloudy
11:54 AM 68.0 °F 57.0 °F 68% 30.26 in 10.0 mi WSW 17.3 mph - N/A   Overcast
12:20 PM 68.0 °F 57.2 °F 68% 30.25 in 10.0 mi SW 16.1 mph - N/A   Overcast
12:54 PM 72.0 °F 59.0 °F 64% 30.25 in 10.0 mi SSW 10.4 mph 18.4 mph N/A   Scattered Clouds
1:54 PM 73.0 °F 59.0 °F 61% 30.22 in 10.0 mi SSW 9.2 mph - N/A   Scattered Clouds
2:54 PM 73.9 °F 60.1 °F 62% 30.19 in 10.0 mi SW 11.5 mph - N/A   Mostly Cloudy
3:54 PM 73.9 °F 60.1 °F 62% 30.17 in 10.0 mi SW 8.1 mph 17.3 mph N/A   Partly Cloudy
4:54 PM 73.0 °F 59.0 °F 61% 30.15 in 10.0 mi SW 9.2 mph - N/A   Mostly Cloudy
5:54 PM 73.0 °F 59.0 °F 61% 30.14 in 10.0 mi SW 8.1 mph - N/A   Clear
6:54 PM 72.0 °F 59.0 °F 64% 30.15 in 10.0 mi SSW 6.9 mph - N/A   Clear
7:54 PM 69.1 °F 59.0 °F 70% 30.16 in 10.0 mi SSW 4.6 mph - N/A   Clear
8:54 PM 64.9 °F 59.0 °F 81% 30.17 in - SSW 4.6 mph - N/A   Unknown
9:54 PM 62.1 °F 57.9 °F 86% 30.18 in 10.0 mi South 5.8 mph - N/A   Clear
10:54 PM 63.0 °F 57.9 °F 84% 30.19 in 8.0 mi South 4.6 mph - N/A   Clear
11:54 PM 63.0 °F 59.0 °F 87% 30.20 in 9.0 mi SSW 4.6 mph - N/A   Clear